FW7312 Boynton Beach FL US current weather conditions

sailwx.info

Wind from 240

Air temperature 30.0° C
Dewpoint 24.4° C

Last reported at 2020-Jul-10 03:04 UTC.
Time now 2020-Jul-10 03:53 UTC

Location: N 26°31' W 080°09'.
View on Google Maps.

See reports from other nearby stations

  
Tides and Currents Weather Stations Pressure Air Temp Water Temp Dewpoint Dewpoint Depression Visibility Wind Speed Wind Dir Waves Ship Positions
date/time (UTC)wind fromknots sea level pressurealtimeterstation pressurevisibilityair tempwater tempwave heightnotes
2020-Jul-10 03:04 240 30.0
2020-Jul-10 02:58 262 0 gusting 2 30.0
2020-Jul-10 02:52 30.0
2020-Jul-10 02:46 30.0
2020-Jul-10 02:40 30.0
2020-Jul-10 02:34 30.0
2020-Jul-10 02:28 196 30.0
2020-Jul-10 02:22 30.0
2020-Jul-10 02:16 156 30.0
2020-Jul-10 02:10 30.0
2020-Jul-10 02:04 167 30.6
2020-Jul-10 01:58 132 30.6
2020-Jul-10 01:52 30.6
2020-Jul-10 01:46 190 30.6
2020-Jul-10 01:40 121 30.6
2020-Jul-10 01:34 144 30.6
2020-Jul-10 01:28 066 30.6
2020-Jul-10 01:22 179 30.6
2020-Jul-10 01:16 229 30.6
2020-Jul-10 01:10 170 0 gusting 4 30.6
2020-Jul-10 01:04 185 30.6
2020-Jul-10 00:58 169 0 gusting 6 30.6
2020-Jul-10 00:52 119 31.1
2020-Jul-10 00:46 172 31.1
2020-Jul-10 00:40 128 31.1
2020-Jul-10 00:34 134 0 gusting 4 31.1
2020-Jul-10 00:28 145 31.1
2020-Jul-10 00:22 162 0 gusting 4 31.1
2020-Jul-10 00:16 123 31.1
2020-Jul-10 00:10 177 31.1
2020-Jul-10 00:04 166 0 gusting 4 31.7
2020-Jul-09 23:58 115 31.7
2020-Jul-09 23:52 081 31.7
2020-Jul-09 23:46 068 31.7
2020-Jul-09 23:40 146 1 gusting 3 31.7
2020-Jul-09 23:34 135 0 gusting 2 31.7
2020-Jul-09 23:28 134 0 gusting 2 32.2
2020-Jul-09 23:22 150 0 gusting 4 32.2
2020-Jul-09 23:16 127 0 gusting 1 32.2
2020-Jul-09 23:10 136 1 gusting 6 32.2
2020-Jul-09 23:04 136 1 gusting 4 32.8
2020-Jul-09 22:58 102 1 gusting 4 32.8
2020-Jul-09 22:52 093 0 gusting 2 32.8
2020-Jul-09 22:46 151 32.8
2020-Jul-09 22:40 166 32.8
2020-Jul-09 22:34 104 1 gusting 3 33.3
2020-Jul-09 22:28 149 1 gusting 4 33.3
2020-Jul-09 22:22 122 0 gusting 2 33.3
2020-Jul-09 22:16 065 0 gusting 6 33.9
2020-Jul-09 22:10 131 1 gusting 5 33.9
2020-Jul-09 22:04 151 0 gusting 3 34.4
2020-Jul-09 21:58 143 34.4
2020-Jul-09 21:52 211 34.4
2020-Jul-09 21:46 34.4
2020-Jul-09 21:40 290 34.4
2020-Jul-09 21:34 257 34.4
2020-Jul-09 21:28 34.4
2020-Jul-09 21:22 327 34.4
2020-Jul-09 21:16 255 1 gusting 3 34.4
2020-Jul-09 21:10 246 1 gusting 6 34.4
2020-Jul-09 21:04 283 0 gusting 3 34.4
2020-Jul-09 20:58 269 1 gusting 3 34.4
2020-Jul-09 20:52 234 34.4
2020-Jul-09 20:46 276 34.4
2020-Jul-09 20:40 34.4
2020-Jul-09 20:34 256 34.4
2020-Jul-09 20:28 214 1 gusting 6 34.4
2020-Jul-09 20:22 226 1 gusting 5 34.4
2020-Jul-09 20:16 264 0 gusting 1 34.4
2020-Jul-09 20:10 181 34.4
2020-Jul-09 20:04 257 35.0
2020-Jul-09 19:58 249 1 gusting 4 35.0
2020-Jul-09 19:52 252 0 gusting 3 35.0
2020-Jul-09 19:46 258 1 gusting 4 35.0
2020-Jul-09 19:40 194 0 gusting 4 35.0
2020-Jul-09 19:34 237 0 gusting 4 34.4
2020-Jul-09 19:28 268 1 gusting 3 34.4
2020-Jul-09 19:22 266 0 gusting 3 34.4
2020-Jul-09 19:16 340 0 gusting 2 34.4
2020-Jul-09 19:10 206 0 gusting 4 34.4
2020-Jul-09 19:04 258 1 gusting 5 34.4
2020-Jul-09 18:58 088 34.4
2020-Jul-09 18:52 269 35.0
2020-Jul-09 18:46 239 1 gusting 4 35.0
2020-Jul-09 18:40 229 35.0
2020-Jul-09 18:34 112 0 gusting 3 35.0
2020-Jul-09 18:28 259 2 gusting 6 35.0
2020-Jul-09 18:22 244 0 gusting 5 35.0
2020-Jul-09 18:16 206 35.0
2020-Jul-09 18:10 264 1 gusting 4 35.0
2020-Jul-09 18:04 274 1 gusting 6 35.0
2020-Jul-09 17:58 187 35.0
2020-Jul-09 17:52 238 0 gusting 4 34.4
2020-Jul-09 17:46 264 2 gusting 6 34.4
2020-Jul-09 17:40 255 1 gusting 6 34.4
2020-Jul-09 17:34 263 0 gusting 2 34.4
2020-Jul-09 17:28 255 1 gusting 5 34.4
2020-Jul-09 17:22 243 2 gusting 6 34.4
2020-Jul-09 17:16 263 1 gusting 6 34.4
2020-Jul-09 17:10 266 2 gusting 6 34.4
2020-Jul-09 17:04 232 0 gusting 3 34.4
2020-Jul-09 16:58 249 2 gusting 6 33.9
2020-Jul-09 16:52 006 0 gusting 2 33.9
2020-Jul-09 16:46 289 33.9
2020-Jul-09 16:40 287 33.9
2020-Jul-09 16:34 269 33.9
2020-Jul-09 16:28 289 0 gusting 5 33.3
2020-Jul-09 16:22 301 1 gusting 3 33.3
2020-Jul-09 16:16 332 1 gusting 3 33.9
2020-Jul-09 16:10 250 0 gusting 4 33.3
2020-Jul-09 16:04 264 1 gusting 5 33.3
2020-Jul-09 15:58 245 0 gusting 5 33.3
2020-Jul-09 15:52 244 0 gusting 4 33.3
2020-Jul-09 15:46 258 2 gusting 5 32.8
2020-Jul-09 15:40 255 0 gusting 4 32.8
2020-Jul-09 15:34 270 0 gusting 3 32.8
2020-Jul-09 15:28 013 1 gusting 4 32.8
2020-Jul-09 15:22 268 1 gusting 5 32.8
2020-Jul-09 15:16 242 1 gusting 4 32.2
2020-Jul-09 15:10 252 1 gusting 3 32.2
2020-Jul-09 15:04 247 32.2
2020-Jul-09 14:58 303 0 gusting 2 32.2
2020-Jul-09 14:52 261 1 gusting 5 31.7
2020-Jul-09 14:46 256 0 gusting 4 31.7
2020-Jul-09 14:40 235 31.7
2020-Jul-09 14:34 294 1 gusting 2 31.1
2020-Jul-09 14:28 279 1 gusting 3 31.1
2020-Jul-09 14:22 014 0 gusting 2 31.1
2020-Jul-09 14:16 258 0 gusting 2 31.1
2020-Jul-09 14:10 310 0 gusting 2 31.1
2020-Jul-09 14:04 317 0 gusting 3 31.1
2020-Jul-09 13:58 359 0 gusting 2 31.1
2020-Jul-09 13:52 281 0 gusting 4 31.1
2020-Jul-09 13:46 223 30.6
2020-Jul-09 13:40 267 0 gusting 3 30.6
2020-Jul-09 13:34 262 1 gusting 4 30.6
2020-Jul-09 13:28 271 30.0
2020-Jul-09 13:22 276 0 gusting 2 30.0
2020-Jul-09 13:16 276 0 gusting 2 29.4
2020-Jul-09 13:10 267 1 gusting 4 29.4
2020-Jul-09 13:04 305 28.9
2020-Jul-09 12:58 285 0 gusting 1 28.9
2020-Jul-09 12:52 353 0 gusting 2 28.9
2020-Jul-09 12:46 250 0 gusting 4 28.3
2020-Jul-09 12:40 286 28.3
2020-Jul-09 12:34 081 28.3
2020-Jul-09 12:28 249 27.8
2020-Jul-09 12:22 27.8
2020-Jul-09 12:16 307 27.2
2020-Jul-09 12:10 27.2
2020-Jul-09 12:04 27.2
2020-Jul-09 11:58 26.7
2020-Jul-09 11:52 26.1
2020-Jul-09 11:46 26.1
2020-Jul-09 11:40 26.1
2020-Jul-09 11:34 26.1
2020-Jul-09 11:28 26.1
2020-Jul-09 11:22 25.6
2020-Jul-09 11:16 25.6
2020-Jul-09 11:10 26.1
2020-Jul-09 11:04 26.1
2020-Jul-09 10:58 26.1
2020-Jul-09 10:52 26.1
2020-Jul-09 10:46 26.1
2020-Jul-09 10:40 26.1
2020-Jul-09 10:34 26.1
2020-Jul-09 10:28 26.1
2020-Jul-09 10:22 26.1
2020-Jul-09 10:16 26.1
2020-Jul-09 10:10 26.1
2020-Jul-09 10:04 26.1
2020-Jul-09 09:58 26.1
2020-Jul-09 09:52 26.1
2020-Jul-09 09:46 26.1
2020-Jul-09 09:40 26.7
2020-Jul-09 09:34 26.7
2020-Jul-09 09:28 26.7
2020-Jul-09 09:22 26.7
2020-Jul-09 09:16 26.7
2020-Jul-09 09:10 26.7
2020-Jul-09 09:04 26.7
2020-Jul-09 08:58 26.7
2020-Jul-09 08:52 26.7
2020-Jul-09 08:46 26.7
2020-Jul-09 08:40 26.7
2020-Jul-09 08:34 26.7
2020-Jul-09 08:28 26.7
2020-Jul-09 08:22 26.7
2020-Jul-09 08:16 27.2
2020-Jul-09 08:10 27.2
2020-Jul-09 08:04 27.2
2020-Jul-09 07:58 27.2
2020-Jul-09 07:52 27.2
2020-Jul-09 07:46 27.2
2020-Jul-09 07:40 27.2
2020-Jul-09 07:34 27.2
2020-Jul-09 07:28 27.2
2020-Jul-09 07:22 27.2
2020-Jul-09 07:16 27.2
2020-Jul-09 07:10 27.2
2020-Jul-09 07:04 27.2
2020-Jul-09 06:58 27.2
2020-Jul-09 06:52 27.2
2020-Jul-09 06:46 27.2
2020-Jul-09 06:40 27.8
2020-Jul-09 06:34 27.8
2020-Jul-09 06:28 27.8
2020-Jul-09 06:22 27.8
2020-Jul-09 06:16 27.8
2020-Jul-09 06:10 27.8
2020-Jul-09 06:04 27.8
2020-Jul-09 05:58 27.8
2020-Jul-09 05:52 27.8
2020-Jul-09 05:46 27.8
2020-Jul-09 05:40 27.8
2020-Jul-09 05:34 27.8
2020-Jul-09 05:28 27.8
2020-Jul-09 05:22 27.8
2020-Jul-09 05:16 27.8
2020-Jul-09 05:10 27.8
2020-Jul-09 05:04 28.3
2020-Jul-09 04:58 28.3
2020-Jul-09 04:52 28.3
2020-Jul-09 04:46 28.3
2020-Jul-09 04:40 28.3
2020-Jul-09 04:34 28.3
2020-Jul-09 04:28 138 28.3
2020-Jul-09 04:22 28.3
2020-Jul-09 04:16 28.3
2020-Jul-09 04:10 28.3
2020-Jul-09 04:04 199 28.3
2020-Jul-09 03:58 28.3
2020-Jul-09 03:52 28.9
2020-Jul-09 03:46 28.9
2020-Jul-09 03:40 28.9
2020-Jul-09 03:34 28.9
2020-Jul-09 03:28 28.9
2020-Jul-09 03:22 28.9
2020-Jul-09 03:16 28.9
2020-Jul-09 03:10 28.9
2020-Jul-09 03:04 28.9
2020-Jul-09 02:58 28.9
2020-Jul-09 02:52 28.9
2020-Jul-09 02:46 28.9
2020-Jul-09 02:40 28.9
2020-Jul-09 02:34 28.9
2020-Jul-09 02:28 28.9
2020-Jul-09 02:22 29.4
2020-Jul-09 02:16 29.4
2020-Jul-09 02:10 29.4
2020-Jul-09 02:04 29.4
2020-Jul-09 01:58 29.4
2020-Jul-09 01:52 29.4
2020-Jul-09 01:46 246 29.4
2020-Jul-09 01:40 29.4
2020-Jul-09 01:34 29.4
2020-Jul-09 01:28 29.4
2020-Jul-09 01:22 29.4
2020-Jul-09 01:16 30.0
2020-Jul-09 01:10 270 30.0
2020-Jul-09 01:04 30.0
2020-Jul-09 00:58 139 30.0
2020-Jul-09 00:52 30.0
2020-Jul-09 00:46 30.0
2020-Jul-09 00:40 30.0
2020-Jul-09 00:34 165 30.0
2020-Jul-09 00:28 195 30.0
2020-Jul-09 00:22 30.0
2020-Jul-09 00:16 30.0
2020-Jul-09 00:10 30.0
2020-Jul-09 00:04 30.0
2020-Jul-08 23:58 30.0
2020-Jul-08 23:52 246 0 gusting 1 30.0
2020-Jul-08 23:46 274 30.0
2020-Jul-08 23:40 258 30.0
2020-Jul-08 23:34 30.0
2020-Jul-08 23:28 263 0 gusting 3 30.6
2020-Jul-08 23:22 266 1 gusting 4 30.6
2020-Jul-08 23:16 257 1 gusting 5 30.6
2020-Jul-08 23:10 261 1 gusting 6 31.1
2020-Jul-08 23:04 287 2 gusting 6 31.7
2020-Jul-08 22:58 31.7
2020-Jul-08 22:52 189 31.7
2020-Jul-08 22:46 172 31.7
2020-Jul-08 22:40 195 32.2
2020-Jul-08 22:34 197 32.2
2020-Jul-08 22:28 201 32.2
2020-Jul-08 22:22 213 32.2
2020-Jul-08 22:16 186 32.2
2020-Jul-08 22:10 154 32.2
2020-Jul-08 22:04 32.2
2020-Jul-08 21:58 173 0 gusting 1 32.2
2020-Jul-08 21:52 163 32.2
2020-Jul-08 21:46 143 32.2
2020-Jul-08 21:40 170 32.2
2020-Jul-08 21:34 32.2
2020-Jul-08 21:28 180 32.2
2020-Jul-08 21:22 178 0 gusting 4 32.2
2020-Jul-08 21:16 170 0 gusting 3 32.2
2020-Jul-08 21:10 185 1 gusting 4 32.2
2020-Jul-08 21:04 197 31.7
2020-Jul-08 20:58 169 0 gusting 3 32.2
2020-Jul-08 20:52 174 0 gusting 2 32.2
2020-Jul-08 20:46 163 32.2
2020-Jul-08 20:40 168 0 gusting 2 32.2
2020-Jul-08 20:34 181 0 gusting 3 32.2
2020-Jul-08 20:28 175 0 gusting 2 32.2
2020-Jul-08 20:22 155 1 gusting 3 32.2
2020-Jul-08 20:16 185 0 gusting 4 32.2
2020-Jul-08 20:10 155 32.2
2020-Jul-08 20:04 150 0 gusting 2 32.2
2020-Jul-08 19:58 159 0 gusting 2 31.7
2020-Jul-08 19:52 172 0 gusting 3 31.7
2020-Jul-08 19:46 162 31.7
2020-Jul-08 19:40 188 0 gusting 2 31.7
2020-Jul-08 19:34 125 31.7
2020-Jul-08 19:28 107 31.7
2020-Jul-08 19:22 168 31.1
2020-Jul-08 19:16 164 31.1
2020-Jul-08 19:10 178 31.1
2020-Jul-08 19:04 30.6
2020-Jul-08 18:58 30.6
2020-Jul-08 18:52 136 0 gusting 3 30.6
2020-Jul-08 18:46 111 31.1
2020-Jul-08 18:40 093 31.1
2020-Jul-08 18:34 162 31.7
2020-Jul-08 18:28 139 31.7
2020-Jul-08 18:22 152 31.7
2020-Jul-08 18:16 209 31.7
2020-Jul-08 18:10 131 0 gusting 4 32.2
2020-Jul-08 18:04 164 1 gusting 7 32.8
2020-Jul-08 17:58 125 33.3
2020-Jul-08 17:52 141 1 gusting 6 33.9
2020-Jul-08 17:46 34.4
2020-Jul-08 17:40 077 35.0
2020-Jul-08 17:34 122 35.0
2020-Jul-08 17:28 224 1 gusting 3 35.0
2020-Jul-08 17:22 299 34.4
2020-Jul-08 17:16 206 0 gusting 3 33.9
2020-Jul-08 17:10 351 34.4
2020-Jul-08 17:04 251 34.4
2020-Jul-08 16:58 259 0 gusting 3 33.9
2020-Jul-08 16:52 248 1 gusting 4 33.9
2020-Jul-08 16:46 234 1 gusting 3 33.3
2020-Jul-08 16:40 238 0 gusting 5 33.9
2020-Jul-08 16:34 253 33.9
2020-Jul-08 16:28 264 34.4
2020-Jul-08 16:22 201 34.4
2020-Jul-08 16:16 243 0 gusting 2 33.9
2020-Jul-08 16:10 022 0 gusting 2 33.9
2020-Jul-08 16:04 33.9
2020-Jul-08 15:58 33.9
2020-Jul-08 15:52 143 33.9
2020-Jul-08 15:46 264 33.9
2020-Jul-08 15:40 246 33.9
2020-Jul-08 15:34 298 33.3
2020-Jul-08 15:28 328 33.3
2020-Jul-08 15:22 221 33.3
2020-Jul-08 15:16 231 0 gusting 1 33.3
2020-Jul-08 15:10 121 33.3
2020-Jul-08 15:04 161 33.3
2020-Jul-08 14:58 049 33.3
2020-Jul-08 14:52 266 32.8
2020-Jul-08 14:46 180 32.8
2020-Jul-08 14:40 142 32.8
2020-Jul-08 14:34 165 32.8
2020-Jul-08 14:28 134 32.2
2020-Jul-08 14:22 217 32.2
2020-Jul-08 14:16 150 32.2
2020-Jul-08 14:10 186 32.2
2020-Jul-08 14:04 183 0 gusting 4 31.7
2020-Jul-08 13:58 31.7
2020-Jul-08 13:52 204 0 gusting 2 31.7
2020-Jul-08 13:46 144 31.1
2020-Jul-08 13:40 188 0 gusting 4 31.1
2020-Jul-08 13:34 162 31.1
2020-Jul-08 13:28 166 31.1
2020-Jul-08 13:22 204 30.6
2020-Jul-08 13:16 30.6
2020-Jul-08 13:10 30.6
2020-Jul-08 13:04 271 30.0
2020-Jul-08 12:58 30.0
2020-Jul-08 12:52 29.4
2020-Jul-08 12:46 29.4
2020-Jul-08 12:40 28.9
2020-Jul-08 12:34 28.9
2020-Jul-08 12:28 28.3
2020-Jul-08 12:22 27.8
2020-Jul-08 12:16 27.8
2020-Jul-08 12:10 27.2
2020-Jul-08 12:04 27.2
2020-Jul-08 11:58 26.7
2020-Jul-08 11:52 26.1
2020-Jul-08 11:46 26.1
2020-Jul-08 11:40 26.1
2020-Jul-08 11:34 25.6
2020-Jul-08 11:28 25.6
2020-Jul-08 11:22 25.6
2020-Jul-08 11:16 25.6
2020-Jul-08 11:10 25.6
2020-Jul-08 11:04 25.6
2020-Jul-08 10:58 25.6
2020-Jul-08 10:52 25.0
2020-Jul-08 10:46 25.0
2020-Jul-08 10:40 25.0
2020-Jul-08 10:34 25.6
2020-Jul-08 10:28 25.6
2020-Jul-08 10:22 25.6
2020-Jul-08 10:16 25.6
2020-Jul-08 10:10 25.6
2020-Jul-08 10:04 25.6
2020-Jul-08 09:58 25.6
2020-Jul-08 09:52 25.6
2020-Jul-08 09:46 25.6
2020-Jul-08 09:40 25.6
2020-Jul-08 09:34 25.6
2020-Jul-08 09:28 25.6
2020-Jul-08 09:22 25.6
2020-Jul-08 09:16 25.6
2020-Jul-08 09:10 25.6
2020-Jul-08 09:04 25.6
2020-Jul-08 08:58 25.6
2020-Jul-08 08:52 25.6
2020-Jul-08 08:46 25.6
2020-Jul-08 08:40 25.6
2020-Jul-08 08:34 25.6
2020-Jul-08 08:28 25.6
2020-Jul-08 08:22 25.6
2020-Jul-08 08:16 25.6
2020-Jul-08 08:10 25.6
2020-Jul-08 08:04 25.6
2020-Jul-08 07:58 25.6
2020-Jul-08 07:52 25.6
2020-Jul-08 07:46 26.1
2020-Jul-08 07:40 26.1
2020-Jul-08 07:34 26.1
2020-Jul-08 07:28 26.1
2020-Jul-08 07:22 26.1
2020-Jul-08 07:16 26.1
2020-Jul-08 07:10 26.1
2020-Jul-08 07:04 26.1
2020-Jul-08 06:58 26.1
2020-Jul-08 06:52 26.1
2020-Jul-08 06:46 26.1
2020-Jul-08 06:40 26.1
2020-Jul-08 06:34 26.1
2020-Jul-08 06:28 26.1
2020-Jul-08 06:22 26.1
2020-Jul-08 06:16 26.1
2020-Jul-08 06:10 26.1
2020-Jul-08 06:04 26.1
2020-Jul-08 05:58 26.1
2020-Jul-08 05:52 26.1
2020-Jul-08 05:46 26.1
2020-Jul-08 05:40 26.1
2020-Jul-08 05:34 26.1
2020-Jul-08 05:28 26.1
2020-Jul-08 05:22 26.1
2020-Jul-08 05:16 26.1
2020-Jul-08 05:10 035 26.1
2020-Jul-08 05:04 26.7
2020-Jul-08 04:58 26.7
2020-Jul-08 04:52 26.7
2020-Jul-08 04:46 26.7
2020-Jul-08 04:40 26.7
2020-Jul-08 04:34 26.7
2020-Jul-08 04:28 26.7
2020-Jul-08 04:22 26.7
2020-Jul-08 04:16 26.7
2020-Jul-08 04:10 26.7
2020-Jul-08 04:04 26.7
2020-Jul-08 03:58 26.7
2020-Jul-08 03:52 26.7
2020-Jul-08 03:46 26.7
2020-Jul-08 03:40 26.7
2020-Jul-08 03:34 26.7
2020-Jul-08 03:28 26.7
2020-Jul-08 03:22 26.7
2020-Jul-08 03:16 26.7
2020-Jul-08 03:10 26.7
2020-Jul-08 03:04 26.7